TimeCDT,TemperatureF,Dew PointF,Humidity,Sea Level PressureIn,VisibilityMPH,Wind Direction,Wind SpeedMPH,Gust SpeedMPH,PrecipitationIn,Events,Conditions,WindDirDegrees,DateUTC
12:15 AM,74.3,70.9,89,29.97,10.0,SE,3.5,-,N/A,,Scattered Clouds,140,2013-05-29 05:15:00
12:35 AM,74.1,70.9,90,29.97,10.0,ESE,3.5,-,N/A,,Scattered Clouds,110,2013-05-29 05:35:00
12:55 AM,73.6,70.7,91,29.97,10.0,SE,3.5,-,N/A,,Clear,130,2013-05-29 05:55:00
1:15 AM,73.0,70.5,92,29.97,7.0,SE,4.6,-,N/A,,Clear,140,2013-05-29 06:15:00
1:35 AM,72.5,70.3,93,29.96,7.0,ESE,4.6,-,N/A,,Clear,120,2013-05-29 06:35:00
1:55 AM,72.5,70.5,93,29.96,7.0,ESE,4.6,-,N/A,,Scattered Clouds,120,2013-05-29 06:55:00
2:15 AM,72.9,70.7,93,29.95,10.0,ESE,5.8,-,N/A,,Mostly Cloudy,110,2013-05-29 07:15:00
2:35 AM,73.4,70.9,92,29.96,10.0,ESE,4.6,-,N/A,,Mostly Cloudy,120,2013-05-29 07:35:00
2:55 AM,73.4,70.9,92,29.95,10.0,ESE,5.8,-,N/A,,Mostly Cloudy,110,2013-05-29 07:55:00
3:15 AM,73.2,70.7,92,29.94,7.0,SE,3.5,-,N/A,,Scattered Clouds,130,2013-05-29 08:15:00
3:35 AM,72.7,70.7,93,29.93,7.0,SE,4.6,-,N/A,,Clear,130,2013-05-29 08:35:00
3:55 AM,72.5,70.5,93,29.93,7.0,SE,4.6,-,N/A,,Clear,140,2013-05-29 08:55:00
4:15 AM,72.3,70.3,93,29.93,7.0,SE,5.8,-,N/A,,Clear,140,2013-05-29 09:15:00
4:35 AM,72.3,70.2,93,29.93,10.0,SE,4.6,-,N/A,,Clear,140,2013-05-29 09:35:00
4:55 AM,72.3,70.0,92,29.92,7.0,ESE,4.6,-,N/A,,Clear,120,2013-05-29 09:55:00
5:15 AM,72.0,70.0,93,29.92,7.0,SE,5.8,-,N/A,,Clear,130,2013-05-29 10:15:00
5:35 AM,71.8,69.8,93,29.93,7.0,SE,4.6,-,N/A,,Clear,140,2013-05-29 10:35:00
5:55 AM,71.6,69.6,93,29.94,7.0,Calm,Calm,-,N/A,,Clear,0,2013-05-29 10:55:00
6:15 AM,71.4,69.4,93,29.94,7.0,Calm,Calm,-,N/A,,Scattered Clouds,0,2013-05-29 11:15:00
6:35 AM,71.1,69.3,94,29.94,5.0,Calm,Calm,-,N/A,,Scattered Clouds,0,2013-05-29 11:35:00
6:55 AM,71.1,69.3,94,29.94,5.0,East,3.5,-,N/A,,Scattered Clouds,90,2013-05-29 11:55:00
7:15 AM,71.2,69.6,95,29.94,5.0,East,4.6,-,N/A,,Clear,90,2013-05-29 12:15:00
7:35 AM,71.8,69.8,93,29.94,7.0,ESE,6.9,-,N/A,,Clear,110,2013-05-29 12:35:00
7:55 AM,73.4,70.5,91,29.94,10.0,ESE,6.9,-,N/A,,Clear,120,2013-05-29 12:55:00
8:15 AM,74.8,71.1,88,29.95,10.0,SSE,4.6,-,N/A,,Clear,150,2013-05-29 13:15:00
8:35 AM,76.6,71.4,84,29.96,10.0,SE,8.1,-,N/A,,Clear,140,2013-05-29 13:35:00
8:55 AM,78.1,71.8,81,29.96,10.0,South,8.1,-,N/A,,Scattered Clouds,170,2013-05-29 13:55:00
9:15 AM,78.6,71.8,79,29.96,10.0,SE,10.4,-,N/A,,Mostly Cloudy,130,2013-05-29 14:15:00
9:35 AM,79.7,71.8,77,29.96,10.0,SSE,5.8,10.4,N/A,,Mostly Cloudy,150,2013-05-29 14:35:00
9:55 AM,80.1,71.6,75,29.96,10.0,SE,4.6,-,N/A,,Scattered Clouds,140,2013-05-29 14:55:00
10:15 AM,79.9,71.2,75,29.97,10.0,SSE,6.9,-,N/A,,Scattered Clouds,160,2013-05-29 15:15:00
10:35 AM,80.6,71.4,73,29.96,10.0,SE,5.8,-,N/A,,Scattered Clouds,140,2013-05-29 15:35:00
10:55 AM,82.0,71.4,70,29.97,10.0,SE,4.6,-,N/A,,Scattered Clouds,130,2013-05-29 15:55:00
11:15 AM,82.9,71.4,68,29.96,10.0,SE,8.1,18.4,N/A,,Scattered Clouds,130,2013-05-29 16:15:00
11:35 AM,82.9,70.2,65,29.96,10.0,SSE,12.7,17.3,N/A,,Mostly Cloudy,160,2013-05-29 16:35:00
11:55 AM,82.4,70.0,66,29.97,10.0,South,6.9,-,N/A,,Scattered Clouds,170,2013-05-29 16:55:00
12:15 PM,82.8,70.5,66,29.96,10.0,SE,4.6,-,N/A,,Scattered Clouds,140,2013-05-29 17:15:00
12:35 PM,83.1,71.1,67,29.96,10.0,SSE,4.6,-,N/A,,Scattered Clouds,160,2013-05-29 17:35:00
12:55 PM,83.7,71.2,66,29.95,10.0,SSE,6.9,-,N/A,,Scattered Clouds,150,2013-05-29 17:55:00
1:15 PM,84.2,70.2,63,29.94,10.0,SE,8.1,-,N/A,,Mostly Cloudy,130,2013-05-29 18:15:00
1:35 PM,84.4,70.0,62,29.93,10.0,SE,9.2,18.4,N/A,,Scattered Clouds,140,2013-05-29 18:35:00
1:55 PM,84.4,70.3,63,29.93,10.0,SSE,8.1,17.3,N/A,,Mostly Cloudy,150,2013-05-29 18:55:00
2:15 PM,84.6,69.6,61,29.93,10.0,SSE,8.1,-,N/A,,Scattered Clouds,160,2013-05-29 19:15:00
2:35 PM,85.3,69.4,59,29.92,10.0,South,9.2,17.3,N/A,,Scattered Clouds,170,2013-05-29 19:35:00
2:55 PM,85.5,69.6,59,29.92,10.0,SSE,8.1,-,N/A,,Scattered Clouds,160,2013-05-29 19:55:00
3:15 PM,85.3,69.8,60,29.92,10.0,SE,8.1,-,N/A,,Mostly Cloudy,140,2013-05-29 20:15:00
3:35 PM,85.1,69.3,59,29.91,10.0,SSE,9.2,-,N/A,,Mostly Cloudy,150,2013-05-29 20:35:00
3:55 PM,84.7,70.7,63,29.91,10.0,South,6.9,-,N/A,,Scattered Clouds,170,2013-05-29 20:55:00
4:15 PM,84.9,70.9,63,29.90,10.0,SE,9.2,-,N/A,,Scattered Clouds,130,2013-05-29 21:15:00
4:35 PM,84.6,70.9,63,29.89,10.0,SSE,5.8,-,N/A,,Scattered Clouds,160,2013-05-29 21:35:00
4:55 PM,84.4,71.1,64,29.89,10.0,SE,5.8,-,N/A,,Scattered Clouds,140,2013-05-29 21:55:00
5:15 PM,83.3,71.4,67,29.89,10.0,SE,5.8,-,N/A,,Scattered Clouds,140,2013-05-29 22:15:00
5:35 PM,82.6,71.6,69,29.89,10.0,SSE,4.6,-,N/A,,Clear,160,2013-05-29 22:35:00
5:55 PM,82.4,71.6,70,29.88,10.0,SSE,5.8,-,N/A,,Clear,150,2013-05-29 22:55:00
6:15 PM,82.6,71.6,69,29.88,10.0,SE,8.1,-,N/A,,Clear,130,2013-05-29 23:15:00
6:35 PM,82.0,71.6,71,29.88,10.0,SE,5.8,-,N/A,,Clear,140,2013-05-29 23:35:00
6:55 PM,82.8,71.8,69,29.89,10.0,SSE,4.6,-,N/A,,Scattered Clouds,150,2013-05-29 23:55:00
7:15 PM,82.0,71.6,71,29.88,10.0,SE,9.2,-,N/A,,Scattered Clouds,140,2013-05-30 00:15:00
7:35 PM,81.1,71.8,73,29.89,10.0,SSE,5.8,-,N/A,,Clear,160,2013-05-30 00:35:00
7:55 PM,80.6,71.6,74,29.89,10.0,SSE,4.6,-,N/A,,Clear,150,2013-05-30 00:55:00
8:15 PM,79.9,71.6,76,29.90,10.0,SE,4.6,-,N/A,,Clear,140,2013-05-30 01:15:00
8:35 PM,79.2,71.6,78,29.90,10.0,ESE,4.6,-,N/A,,Clear,120,2013-05-30 01:35:00
8:55 PM,78.6,71.8,79,29.90,10.0,SE,4.6,-,N/A,,Clear,140,2013-05-30 01:55:00
9:15 PM,77.9,71.8,81,29.90,10.0,ESE,4.6,-,N/A,,Clear,120,2013-05-30 02:15:00
9:35 PM,77.5,71.8,82,29.90,10.0,ESE,4.6,-,N/A,,Clear,120,2013-05-30 02:35:00
9:55 PM,77.0,71.8,84,29.92,10.0,SSE,4.6,-,N/A,,Clear,150,2013-05-30 02:55:00
10:15 PM,76.8,71.8,84,29.92,10.0,SE,3.5,-,N/A,,Clear,140,2013-05-30 03:15:00
10:35 PM,76.3,71.6,85,29.93,10.0,SE,3.5,-,N/A,,Clear,130,2013-05-30 03:35:00
10:55 PM,76.1,71.6,86,29.92,10.0,SE,3.5,-,N/A,,Clear,130,2013-05-30 03:55:00
11:15 PM,75.6,71.8,88,29.93,10.0,SE,4.6,-,N/A,,Clear,130,2013-05-30 04:15:00
11:35 PM,75.2,71.6,89,29.93,10.0,SE,4.6,-,N/A,,Clear,140,2013-05-30 04:35:00
11:55 PM,75.0,71.6,89,29.93,10.0,SE,3.5,-,N/A,,Clear,130,2013-05-30 04:55:00